AI9F Weather Reports


time (UTC)temp
C
wind
direction
speed
KPH
gust
KPH
rain 1hr
cm
rain 24hr
cm
rain mn
cm
humidity
%
barometer
mb
20260504081858 14 160 1.6 1.6 0.13 0.69 0.69 85 1010.4
20260504081354 14 227 3.2 4.8 0.43 0.69 0.69 83 1010.8
20260504080850 14 233 4.8 4.8 1.07 0.64 0.64 82 1011.5
20260504080348 14 222 6.4 6.4 1.27 0.61 0.61 83 1011.7
20260504070315 15 187 9.7 11.3 0.00 0.00 0.00 63 1011.3
20260504060235 13 152 0.0 0.0 0.00 0.00 0.00 63 1010.1
20260504050703 14 110 0.0 0.0 0.00 0.00 0.00 60 1010.2
20260504050200 13 110 0.0 0.0 0.00 0.00 0.00 59 1010.2
20260504045658 13 110 0.0 0.0 0.00 0.00 0.00 61 1010.5
20260504045152 13 111 0.0 0.0 0.00 0.00 0.00 61 1010.4
20260504044650 13 111 0.0 0.0 0.00 0.00 0.00 60 1010.4
20260504044147 14 111 0.0 0.0 0.00 0.00 0.00 62 1010.5
20260504043644 14 111 0.0 0.0 0.00 0.00 0.00 62 1010.6
20260504043141 14 111 0.0 0.0 0.00 0.00 0.00 62 1010.4
20260504042638 14 111 0.0 0.0 0.00 0.00 0.00 62 1010.6
20260504042135 14 111 0.0 0.0 0.00 0.00 0.00 60 1010.8
20260504041630 14 111 0.0 0.0 0.00 0.00 0.00 60 1010.9
20260504041127 15 111 0.0 0.0 0.00 0.00 0.00 59 1010.9
20260504040624 15 111 0.0 0.0 0.00 0.00 0.00 60 1010.6
20260504040121 15 111 0.0 0.0 0.00 0.00 0.00 55 1011.1
20260504035618 15 111 1.6 1.6 0.00 0.00 0.00 56 1010.9
20260504035114 15 111 0.0 0.0 0.00 0.00 0.00 57 1011.0
20260504034612 15 111 0.0 0.0 0.00 0.00 0.00 57 1011.0
20260504034109 15 111 0.0 0.0 0.00 0.00 0.00 60 1011.0
20260504033607 15 111 0.0 0.0 0.00 0.00 0.00 59 1011.2
20260504033103 15 111 0.0 0.0 0.00 0.00 0.00 59 1011.0
20260504032600 15 111 0.0 0.0 0.00 0.00 0.00 56 1011.1
20260504032058 15 111 0.0 0.0 0.00 0.00 0.00 58 1011.2
20260504031554 15 111 0.0 0.0 0.00 0.00 0.00 58 1011.0
20260504031050 15 111 0.0 0.0 0.00 0.00 0.00 59 1011.3
20260504030548 15 111 0.0 0.0 0.00 0.00 0.00 55 1011.3
20260504030044 15 111 0.0 0.0 0.00 0.00 0.00 55 1011.3
20260504025541 15 111 0.0 0.0 0.00 0.00 0.00 56 1011.1
20260504025038 15 110 0.0 1.6 0.00 0.00 0.00 56 1011.2
20260504024535 15 111 1.6 1.6 0.00 0.00 0.00 56 1011.6
20260504024032 15 133 1.6 0.0 0.00 0.00 0.00 56 1011.1
20260504023528 16 141 1.6 1.6 0.00 0.00 0.00 55 1011.2
20260504023024 16 142 1.6 3.2 0.00 0.00 0.00 52 1010.8
20260504022520 16 140 0.0 0.0 0.00 0.00 0.00 53 1011.1
20260504022017 16 139 1.6 1.6 0.00 0.00 0.00 52 1010.9
20260504021515 15 129 0.0 1.6 0.00 0.00 0.00 53 1010.8
20260504021012 15 138 1.6 1.6 0.00 0.00 0.00 53 1010.9
20260504020508 15 137 0.0 0.0 0.00 0.00 0.00 54 1011.1
20260504020005 15 136 0.0 0.0 0.00 0.00 0.00 53 1011.1
20260504015501 15 137 0.0 0.0 0.00 0.00 0.00 53 1010.8
20260504014957 16 131 0.0 0.0 0.00 0.00 0.00 52 1010.7
20260504014453 16 133 1.6 1.6 0.00 0.00 0.00 52 1010.7
20260504013950 16 126 1.6 1.6 0.00 0.00 0.00 50 1010.8
20260504013449 16 132 1.6 1.6 0.00 0.00 0.00 49 1010.8
20260504012944 16 127 1.6 1.6 0.00 0.00 0.00 49 1010.8
20260504012443 16 134 1.6 1.6 0.00 0.00 0.00 49 1010.7
20260504011940 16 139 1.6 1.6 0.00 0.00 0.00 49 1010.7
20260504011436 16 130 1.6 1.6 0.00 0.00 0.00 50 1010.8
20260504010932 16 123 0.0 0.0 0.00 0.00 0.00 51 1011.1
20260504010428 16 129 0.0 0.0 0.00 0.00 0.00 51 1011.0
20260504005925 17 130 0.0 0.0 0.00 0.00 0.00 50 1010.8
20260504005421 17 99 1.6 1.6 0.00 0.00 0.00 46 1010.9
20260504004919 17 159 3.2 3.2 0.00 0.00 0.00 46 1011.0
20260504004417 17 135 0.0 0.0 0.00 0.00 0.00 48 1011.0
20260504003913 17 100 0.0 0.0 0.00 0.00 0.00 47 1010.8
20260504003410 17 106 1.6 1.6 0.00 0.00 0.00 47 1010.8
20260504002906 18 18 1.6 3.2 0.00 0.00 0.00 45 1010.8
20260504002403 18 119 0.0 0.0 0.00 0.00 0.00 45 1011.0
20260504001901 18 160 0.0 0.0 0.00 0.00 0.00 45 1011.2
20260504001358 18 2 1.6 3.2 0.00 0.00 0.00 44 1011.3
20260504000855 18 163 1.6 1.6 0.00 0.00 0.00 43 1011.6
20260504000354 19 148 1.6 1.6 0.00 0.00 0.00 41 1011.5
20260503235849 19 133 0.0 0.0 0.00 0.00 0.00 39 1011.6
20260503235347 20 263 1.6 1.6 0.00 0.00 0.00 38 1011.8
20260503234844 20 125 1.6 3.2 0.00 0.00 0.00 37 1011.7
20260503234342 20 132 1.6 1.6 0.00 0.00 0.00 39 1011.4
20260503233839 20 0 4.8 4.8 0.00 0.00 0.00 37 1011.6
20260503233335 20 115 1.6 3.2 0.00 0.00 0.00 36 1011.5
20260503232832 21 128 1.6 1.6 0.00 0.00 0.00 37 1011.7
20260503232329 20 130 1.6 1.6 0.00 0.00 0.00 38 1011.4
20260503231827 20 135 3.2 3.2 0.00 0.00 0.00 38 1011.5
20260503231324 20 21 3.2 3.2 0.00 0.00 0.00 36 1011.7
20260503230820 20 263 6.4 9.7 0.00 0.00 0.00 35 1011.6
20260503230317 20 154 6.4 6.4 0.00 0.00 0.00 37 1011.5
20260503225815 20 117 4.8 6.4 0.00 0.00 0.00 35 1011.6
20260503225310 20 306 3.2 3.2 0.00 0.00 0.00 35 1011.6
20260503224807 20 299 3.2 3.2 0.00 0.00 0.00 35 1011.3
20260503224304 20 116 1.6 1.6 0.00 0.00 0.00 37 1011.1
20260503223802 20 154 3.2 3.2 0.00 0.00 0.00 36 1011.1
20260503223259 20 265 6.4 12.9 0.00 0.00 0.00 36 1011.3
20260503222755 20 175 6.4 6.4 0.00 0.00 0.00 36 1011.3
20260503222253 21 175 3.2 4.8 0.00 0.00 0.00 38 1011.1
20260503221751 21 316 6.4 9.7 0.00 0.00 0.00 37 1011.4
20260503221249 20 267 4.8 6.4 0.00 0.00 0.00 36 1011.2
20260503220745 21 187 8.0 9.7 0.00 0.00 0.00 37 1011.4
20260503220243 21 279 4.8 6.4 0.00 0.00 0.00 36 1011.5
20260503215739 21 146 3.2 3.2 0.00 0.00 0.00 39 1011.6
20260503215236 21 155 3.2 3.2 0.00 0.00 0.00 37 1011.8
20260503214734 20 142 4.8 4.8 0.00 0.00 0.00 40 1011.7
20260503214231 20 97 6.4 12.9 0.00 0.00 0.00 39 1011.6
20260503213729 21 7 9.7 14.5 0.00 0.00 0.00 37 1012.2
20260503213226 21 264 6.4 9.7 0.00 0.00 0.00 38 1012.1
20260503212723 21 197 6.4 6.4 0.00 0.00 0.00 40 1012.0
20260503212220 21 136 3.2 3.2 0.00 0.00 0.00 39 1012.1
20260503211718 21 243 9.7 11.3 0.00 0.00 0.00 38 1012.4
20260503211213 20 273 3.2 6.4 0.00 0.00 0.00 37 1012.6
20260503210709 20 290 4.8 6.4 0.00 0.00 0.00 38 1012.8
20260503210207 21 275 8.0 12.9 0.00 0.00 0.00 38 1013.0
20260503205702 20 222 4.8 6.4 0.00 0.00 0.00 38 1012.8
20260503205158 20 139 9.7 12.9 0.00 0.00 0.00 37 1013.2
20260503204655 20 154 1.6 1.6 0.00 0.00 0.00 40 1013.2
20260503204153 20 114 6.4 11.3 0.00 0.00 0.00 38 1013.3
20260503203649 20 165 3.2 3.2 0.00 0.00 0.00 40 1013.4
20260503203147 20 45 6.4 9.7 0.00 0.00 0.00 39 1013.7
20260503202644 20 35 3.2 4.8 0.00 0.00 0.00 40 1013.5
20260503202142 20 164 3.2 3.2 0.00 0.00 0.00 40 1013.6
20260503201640 20 6 4.8 6.4 0.00 0.00 0.00 40 1013.7
20260503201137 20 75 8.0 12.9 0.00 0.00 0.00 41 1013.9
20260503200633 20 119 6.4 9.7 0.00 0.00 0.00 38 1014.2
20260503200130 20 298 6.4 11.3 0.00 0.00 0.00 38 1014.4
20260503195627 20 101 3.2 3.2 0.00 0.00 0.00 44 1014.6
20260503195124 20 326 9.7 12.9 0.00 0.00 0.00 41 1014.7
20260503194621 20 151 3.2 3.2 0.00 0.00 0.00 39 1014.8
20260503194116 20 130 4.8 6.4 0.00 0.00 0.00 41 1015.3
20260503193613 20 237 6.4 16.1 0.00 0.00 0.00 40 1015.0
20260503193108 20 196 3.2 3.2 0.00 0.00 0.00 41 1015.3
20260503192604 20 254 1.6 3.2 0.00 0.00 0.00 41 1015.6
20260503192100 19 31 4.8 6.4 0.00 0.00 0.00 41 1015.7
20260503191557 19 46 4.8 9.7 0.00 0.00 0.00 42 1015.6
20260503191054 20 238 11.3 16.1 0.00 0.00 0.00 39 1015.8
20260503190551 20 287 3.2 4.8 0.00 0.00 0.00 43 1015.8
20260503190048 20 171 6.4 9.7 0.00 0.00 0.00 39 1015.7
20260503185544 18 52 4.8 4.8 0.00 0.00 0.00 45 1015.8
20260503185044 19 260 8.0 14.5 0.00 0.00 0.00 38 1016.0
20260503184540 19 178 9.7 14.5 0.00 0.00 0.00 39 1016.2
20260503184037 18 138 6.4 9.7 0.00 0.00 0.00 46 1016.0
20260503183534 19 206 4.8 6.4 0.00 0.00 0.00 44 1016.0
20260503183031 18 292 6.4 9.7 0.00 0.00 0.00 43 1016.5
20260503182529 18 130 3.2 4.8 0.00 0.00 0.00 42 1016.3
20260503182027 18 136 11.3 16.1 0.00 0.00 0.00 41 1016.7
20260503181524 18 209 11.3 14.5 0.00 0.00 0.00 42 1016.7
20260503181020 18 287 8.0 12.9 0.00 0.00 0.00 39 1016.8
20260503180518 18 148 3.2 4.8 0.00 0.00 0.00 46 1016.9
20260503180015 18 273 9.7 12.9 0.00 0.00 0.00 40 1016.9
20260503175512 18 302 6.4 6.4 0.00 0.00 0.00 45 1017.2
20260503175009 18 280 4.8 16.1 0.00 0.00 0.00 45 1017.3
20260503174507 19 111 1.6 1.6 0.00 0.00 0.00 46 1017.4
20260503174002 18 236 4.8 6.4 0.00 0.00 0.00 42 1017.9
20260503173457 18 351 4.8 4.8 0.00 0.00 0.00 46 1018.1
20260503172954 17 154 1.6 1.6 0.00 0.00 0.00 48 1018.0
20260503172452 18 338 3.2 3.2 0.00 0.00 0.00 47 1018.1
20260503171948 18 285 4.8 4.8 0.00 0.00 0.00 48 1018.1
20260503171445 17 110 3.2 3.2 0.00 0.00 0.00 46 1018.1
20260503170943 17 36 3.2 4.8 0.00 0.00 0.00 46 1018.4
20260503170438 17 341 4.8 4.8 0.00 0.00 0.00 47 1018.5
20260503150831 13 100 1.6 1.6 0.00 0.00 0.00 54 1019.7
20260503150327 13 143 3.2 3.2 0.00 0.00 0.00 51 1019.6
20260503140251 12 102 1.6 1.6 0.00 0.00 0.00 63 1020.3
20260503131221 10 144 0.0 0.0 0.00 0.00 0.00 74 1019.9
20260503130719 10 257 3.2 3.2 0.00 0.00 0.00 77 1019.9
20260503130216 10 348 6.4 6.4 0.00 0.00 0.00 75 1019.8
20260503120141 6 142 1.6 1.6 0.00 0.00 0.00 97 1019.8
20260503110609 3 127 0.0 0.0 0.00 0.00 0.00 97 1019.6
20260503110107 3 127 0.0 0.0 0.00 0.00 0.00 97 1019.5
20260503090456 3 127 0.0 0.0 0.00 0.00 0.00 96 1019.8